Location: Unspecified
(0.0000°N, 0.0000°E)
Time: 10:00:13
(UTC+00:00)

NNS O-29 - Pass Details

Date: 11 August 2024
Orbit: 1013 x 1173 km, 90.4° (Epoch: 07 September)

Event Time Altitude Azimuth Distance (km) Brightness Sun altitude
Rises 18:41:41 0° 1° (N) 3,796 10.3 -8.8°
Reaches altitude 10° 18:44:13 10° 0° (N) 2,828 9.6 -9.4°
Maximum altitude 18:50:38 79° 274° (W) 1,040 7.3 -11.0°
Drops below altitude 10° 18:56:58 10° 188° (S) 2,794 9.3 -12.5°
Sets 18:59:29 0° 187° (S) 3,748 10.0 -13.1°
